This is the latest recevied weather packets stored in our database for station/object KE3HG-2. If no packets are shown the sender has not sent any weather packets the latest 10 day(s).
| Time | Temp. | Humidity | Pressure | Rain* | Wind** | Luminosity | Snow |
|---|---|---|---|---|---|---|---|
| 1777747422 | 14.44° C | 27% | 757.5 hPa | 0 mm | - | - | - |
| 1777746822 | 14.44° C | 30% | 757.5 hPa | 0 mm | - | - | - |
| 1777745813 | 13.89° C | 34% | 757.5 hPa | 0 mm | - | - | - |
| 1777745213 | 13.89° C | 32% | 757.5 hPa | 0 mm | - | - | - |
| 1777744613 | 13.89° C | 32% | 757.5 hPa | 0 mm | - | - | - |
| 1777743610 | 13.89° C | 32% | 757.5 hPa | 0 mm | - | - | - |
| 1777743010 | 13.89° C | 32% | 757.5 hPa | 0 mm | - | - | - |
| 1777742410 | 13.33° C | 32% | 757.5 hPa | 0 mm | - | - | - |
| 1777741417 | 13.33° C | 34% | 757.5 hPa | 0 mm | - | - | - |
| 1777740817 | 13.89° C | 34% | 757.5 hPa | 0 mm | - | - | - |
| 1777740217 | 13.33° C | 37% | 757.5 hPa | 0 mm | - | - | - |
| 1777739226 | 12.78° C | 36% | 757.5 hPa | 0 mm | - | - | - |
| 1777738626 | 12.78° C | 36% | 757.5 hPa | 0 mm | - | - | - |
| 1777738026 | 12.78° C | 37% | 757.5 hPa | 0 mm | - | - | - |
| 1777737019 | 12.78° C | 39% | 757.5 hPa | 0 mm | - | - | - |
| 1777736419 | 12.78° C | 36% | 757.5 hPa | 0 mm | - | - | - |
| 1777735819 | 12.78° C | 38% | 757.5 hPa | 0 mm | - | - | - |
| 1777734812 | 12.22° C | 41% | 757.5 hPa | 0 mm | - | - | - |
| 1777734214 | 12.22° C | 40% | 757.5 hPa | 0 mm | - | - | - |
| 1777733612 | 11.67° C | 46% | 757.5 hPa | 0 mm | - | - | - |
| 1777732601 | 11.11° C | 49% | 757.5 hPa | 0 mm | - | - | - |
| 1777732001 | 10.56° C | 47% | 757.5 hPa | 0 mm | - | - | - |
| 1777731401 | 10.56° C | 47% | 757.5 hPa | 0 mm | - | - | - |
| 1777730409 | 10.56° C | 47% | 757.5 hPa | 0 mm | - | - | - |
| 1777729809 | 10.56° C | 47% | 757.5 hPa | 0 mm | - | - | - |
* Rain latest hour (hover to see other rain measurements)
** Current wind speed in m/s (hover to see current wind gust speed)